Main page
METAR-TAF:

METAR-TAF

Airports :

Pontianak, Indonesia

Supadio International Airport

latitude: 00-09S, longitude: 109-24E, elevation: 3 m

Current weather observation

The report was made 4 hours and 21 minutes ago, at 15:00 UTC
Calm wind
Temperature 26°C
Humidity 94%
Pressure 1011 hPa
Visibility: 6000 m
Few clouds at a height of 1300 ft

METAR: WIOO 211500Z 00000KT 6000 FEW013 26/25 Q1011 NOSIG

Time: 02:21 (19:21 UTC)


TAF: missing

Weather observations and forecasts of more than 4000 airports (METAR and TAF reports).

The available stations are represented by yellow and red dots on the map.

Hover mouse over dot to see the name of the station.

Then click to see weather observations and forecasts.

To change the map : click on the green buttons with a black cross to zoom in, on the green button with a dash to zoom out, or on the green arrows for adjacent maps.


METAR-TAF: